User: anonymous   Login
Location: Unspecified
(0.0000°N, 0.0000°E)
Time: 02:10:51
(UTC+02:00)
Language:

SWIFT - Orbit

View from above orbital plane
View from above orbital plane
View from above satellite
View from above satellite

Ground track
Ground track

The orbit data is extracted from the following two-line orbital elements,

1 28485U 04047A   15184.81822457  .00001756  00000-0  97930-4 0  9999
2 28485 020.5570 083.3771 0011767 223.0513 136.9000 15.01882149580589
Epoch (UTC): 03 July 2015 19:38:14
Eccentricity: 0.0011767
inclination: 20.5570°
perigee height: 553 km
apogee height: 569 km
right ascension of ascending node: 83.3771°
argument of perigee: 223.0513°
revolutions per day: 15.01882149
mean anomaly at epoch: 136.9000°
orbit number at epoch: 58058

The dashed part of the orbit path shows where the satellite is in the earth's shadow,  

DLR